^^
Saratoga-Weather Station Historical Data
Daily Summary for April 30, 2021 Units:  English    Metric   Both
Daily Weekly Monthly Yearly Custom
  High: Low: Average:
Temperature: 61.5 °F 50.5 °F 54.9 °F
Dew Point: 49.3 °F 43.9 °F 46 °F
Humidity: 79% 63% 73%
Wind Speed: 4.9mph 0mph 1.3mph
Wind Gust: 9mph - -
Wind- - SSE
Pressure: 30.3 in 30.2 in -
Precipitation: 0 in    
Historical Graphs
 
 
Tabular Data for April 30, 2021
Time Temperature Dew Point Pressure Wind Wind Speed Wind Gust Humidity Rainfall Rate (Hourly) solar
00:00 59 °F 46.4 °F 30.2 in North 2.9 mph 4 mph 63% 0 in 0 W/m2
00:05 58.8 °F 46.2 °F 30.2 in NW 0.9 mph 9 mph 63% 0 in 0 W/m2
00:10 58.8 °F 46.2 °F 30.2 in West 2.9 mph 8 mph 63% 0 in 0 W/m2
00:15 58.6 °F 46.6 °F 30.2 in NNW 4 mph 9 mph 64% 0 in 0 W/m2
00:20 58.5 °F 46.4 °F 30.2 in WNW 0.9 mph 7 mph 64% 0 in 0 W/m2
00:25 58.5 °F 46.8 °F 30.2 in WNW 2.9 mph 4 mph 65% 0 in 0 W/m2
00:31 58.3 °F 46.6 °F 30.2 in WNW 2.9 mph 7 mph 65% 0 in 0 W/m2
00:36 58.3 °F 46.9 °F 30.2 in SW 2.9 mph 4 mph 66% 0 in 0 W/m2
00:41 58.3 °F 46.9 °F 30.2 in WNW 4.9 mph 5 mph 66% 0 in 0 W/m2
00:46 58.1 °F 47.1 °F 30.2 in NNW 0.9 mph 4 mph 67% 0 in 0 W/m2
00:51 57.9 °F 46.9 °F 30.2 in WNW 2 mph 3 mph 67% 0 in 0 W/m2
00:56 57.7 °F 46.9 °F 30.2 in West 2 mph 2 mph 67% 0 in 0 W/m2
01:01 57.6 °F 47.1 °F 30.2 in Calm   1 mph 68% 0 in 0 W/m2
01:06 57.2 °F 47.1 °F 30.2 in South 0.9 mph 2 mph 69% 0 in 0 W/m2
01:11 56.8 °F 47.1 °F 30.2 in SE 0.9 mph 2 mph 70% 0 in 0 W/m2
01:16 56.5 °F 46.8 °F 30.2 in ENE 0.9 mph 2 mph 70% 0 in 0 W/m2
01:21 56.5 °F 47.1 °F 30.2 in WNW 0.9 mph 4 mph 71% 0 in 0 W/m2
01:26 56.5 °F 47.1 °F 30.2 in Calm   2 mph 71% 0 in 0 W/m2
01:31 56.3 °F 46.9 °F 30.2 in WSW 0.9 mph 2 mph 71% 0 in 0 W/m2
01:36 56.1 °F 46.8 °F 30.2 in Calm   1 mph 71% 0 in 0 W/m2
01:41 56.1 °F 46.8 °F 30.2 in Calm   3 mph 71% 0 in 0 W/m2
01:46 55.9 °F 46.8 °F 30.2 in NNE 2.9 mph 5 mph 71% 0 in 0 W/m2
01:51 55.9 °F 46.8 °F 30.2 in Calm   2 mph 71% 0 in 0 W/m2
01:56 55.9 °F 46.8 °F 30.2 in Calm   4 mph 71% 0 in 0 W/m2
02:01 55.9 °F 46.8 °F 30.2 in ENE 2.9 mph 4 mph 71% 0 in 0 W/m2
02:06 55.9 °F 46.8 °F 30.2 in North 0.9 mph 4 mph 71% 0 in 0 W/m2
02:11 55.8 °F 46.6 °F 30.2 in East 2 mph 3 mph 71% 0 in 0 W/m2
02:16 55.8 °F 46.6 °F 30.2 in Calm   3 mph 71% 0 in 0 W/m2
02:21 55.6 °F 46.4 °F 30.2 in Calm   3 mph 71% 0 in 0 W/m2
02:26 55.6 °F 46.4 °F 30.2 in NNE 0.9 mph 2 mph 71% 0 in 0 W/m2
02:31 55.4 °F 46.2 °F 30.2 in Calm   1 mph 71% 0 in 0 W/m2
02:36 55.2 °F 46.4 °F 30.2 in Calm   1 mph 72% 0 in 0 W/m2
02:41 55 °F 46.6 °F 30.2 in Calm   1 mph 73% 0 in 0 W/m2
02:46 54.7 °F 46.2 °F 30.2 in East 2 mph 3 mph 73% 0 in 0 W/m2
02:51 54.5 °F 46 °F 30.2 in East 2 mph 2 mph 73% 0 in 0 W/m2
02:56 54.3 °F 45.9 °F 30.2 in NNE 2 mph 2 mph 73% 0 in 0 W/m2
03:02 54.3 °F 46.2 °F 30.2 in Calm   1 mph 74% 0 in 0 W/m2
03:07 54.1 °F 46 °F 30.2 in ESE 0.9 mph 2 mph 74% 0 in 0 W/m2
03:12 53.8 °F 46 °F 30.2 in ESE 0.9 mph 2 mph 75% 0 in 0 W/m2
03:17 53.4 °F 45.7 °F 30.2 in Calm   2 mph 75% 0 in 0 W/m2
03:22 53.1 °F 45.7 °F 30.2 in Calm   1 mph 76% 0 in 0 W/m2
03:27 52.7 °F 45.3 °F 30.2 in West 2.9 mph 3 mph 76% 0 in 0 W/m2
03:32 52.7 °F 45.3 °F 30.2 in WNW 0.9 mph 2 mph 76% 0 in 0 W/m2
03:37 52.5 °F 45.1 °F 30.2 in WSW 2 mph 2 mph 76% 0 in 0 W/m2
03:42 52.5 °F 45.1 °F 30.2 in Calm   2 mph 76% 0 in 0 W/m2
03:47 52.5 °F 45.1 °F 30.2 in WNW 2.9 mph 3 mph 76% 0 in 0 W/m2
03:52 52.5 °F 45.1 °F 30.2 in North 0.9 mph 4 mph 76% 0 in 0 W/m2
03:57 52.5 °F 45.1 °F 30.2 in SSE 0.9 mph 3 mph 76% 0 in 0 W/m2
04:02 52.5 °F 44.8 °F 30.2 in NNE 0.9 mph 3 mph 75% 0 in 0 W/m2
04:07 52.7 °F 45 °F 30.2 in ENE 0.9 mph 4 mph 75% 0 in 0 W/m2
04:12 52.7 °F 44.6 °F 30.2 in ENE 2 mph 2 mph 74% 0 in 0 W/m2
04:17 52.7 °F 45 °F 30.2 in Calm   3 mph 75% 0 in 0 W/m2
04:22 52.5 °F 44.8 °F 30.2 in NE 2 mph 5 mph 75% 0 in 0 W/m2
04:27 52.7 °F 45 °F 30.2 in Calm   1 mph 75% 0 in 0 W/m2
04:32 52.7 °F 45 °F 30.2 in Calm   5 mph 75% 0 in 0 W/m2
04:37 52.5 °F 44.8 °F 30.2 in SSE 0.9 mph 3 mph 75% 0 in 0 W/m2
04:42 52.3 °F 44.6 °F 30.2 in ESE 2 mph 2 mph 75% 0 in 0 W/m2
04:47 52.3 °F 44.6 °F 30.2 in East 2 mph 5 mph 75% 0 in 0 W/m2
04:52 52.2 °F 44.4 °F 30.2 in NW 2.9 mph 8 mph 75% 0 in 0 W/m2
04:57 52.2 °F 44.4 °F 30.2 in East 2 mph 3 mph 75% 0 in 0 W/m2
05:02 52.2 °F 44.4 °F 30.2 in ENE 0.9 mph 8 mph 75% 0 in 0 W/m2
05:07 52 °F 44.6 °F 30.2 in NE 2 mph 3 mph 76% 0 in 0 W/m2
05:12 51.8 °F 44.4 °F 30.2 in WNW 0.9 mph 1 mph 76% 0 in 0 W/m2
05:17 51.6 °F 44.2 °F 30.2 in North 2 mph 3 mph 76% 0 in 0 W/m2
05:22 51.6 °F 44.2 °F 30.2 in Calm   2 mph 76% 0 in 0 W/m2
05:27 51.4 °F 44.1 °F 30.2 in ESE 0.9 mph 6 mph 76% 0 in 0 W/m2
05:32 51.4 °F 44.1 °F 30.2 in ENE 0.9 mph 2 mph 76% 0 in 0 W/m2
05:37 51.3 °F 44.2 °F 30.2 in Calm   1 mph 77% 0 in 5 W/m2
05:42 51.1 °F 44.1 °F 30.2 in SE 2 mph 3 mph 77% 0 in 5 W/m2
05:47 51.1 °F 44.1 °F 30.2 in Calm   3 mph 77% 0 in 9 W/m2
05:52 50.9 °F 43.9 °F 30.2 in Calm   1 mph 77% 0 in 11 W/m2
05:57 50.9 °F 44.2 °F 30.2 in Calm   1 mph 78% 0 in 12 W/m2
06:02 50.7 °F 44.1 °F 30.2 in South 2 mph 2 mph 78% 0 in 14 W/m2
06:07 50.7 °F 44.1 °F 30.2 in ESE 0.9 mph 4 mph 78% 0 in 16 W/m2
06:12 50.7 °F 44.4 °F 30.2 in ENE 0.9 mph 3 mph 79% 0 in 19 W/m2
06:17 50.5 °F 44.2 °F 30.2 in East 2 mph 3 mph 79% 0 in 21 W/m2
06:22 50.5 °F 44.2 °F 30.2 in Calm   2 mph 79% 0 in 23 W/m2
06:27 50.7 °F 44.4 °F 30.2 in ENE 0.9 mph 1 mph 79% 0 in 25 W/m2
06:32 50.7 °F 44.4 °F 30.2 in NW 2 mph 3 mph 79% 0 in 26 W/m2
06:37 50.7 °F 44.4 °F 30.2 in Calm   3 mph 79% 0 in 26 W/m2
06:42 50.9 °F 44.6 °F 30.2 in Calm   4 mph 79% 0 in 28 W/m2
06:47 51.1 °F 44.8 °F 30.2 in East 2 mph 6 mph 79% 0 in 30 W/m2
06:52 51.1 °F 44.8 °F 30.2 in NE 2 mph 2 mph 79% 0 in 32 W/m2
06:57 51.3 °F 44.6 °F 30.2 in WNW 2 mph 3 mph 78% 0 in 32 W/m2
07:02 51.3 °F 44.6 °F 30.2 in NE 0.9 mph 4 mph 78% 0 in 33 W/m2
07:07 51.3 °F 44.6 °F 30.2 in NW 0.9 mph 4 mph 78% 0 in 35 W/m2
07:12 51.4 °F 44.8 °F 30.2 in WSW 2 mph 4 mph 78% 0 in 35 W/m2
07:17 51.6 °F 45 °F 30.2 in North 2.9 mph 3 mph 78% 0 in 37 W/m2
07:22 51.8 °F 45.1 °F 30.2 in North 0.9 mph 3 mph 78% 0 in 37 W/m2
07:27 52 °F 45.3 °F 30.2 in NNE 0.9 mph 2 mph 78% 0 in 39 W/m2
07:32 52.2 °F 45.1 °F 30.2 in NNW 2.9 mph 3 mph 77% 0 in 40 W/m2
07:37 52.3 °F 45.3 °F 30.2 in NNE 0.9 mph 4 mph 77% 0 in 40 W/m2
07:42 52.5 °F 45.5 °F 30.2 in West 0.9 mph 2 mph 77% 0 in 162 W/m2
07:47 52.9 °F 45.9 °F 30.2 in West 0.9 mph 2 mph 77% 0 in 234 W/m2
07:52 53.1 °F 46 °F 30.2 in NW 0.9 mph 4 mph 77% 0 in 255 W/m2
07:57 53.4 °F 46 °F 30.2 in WNW 2.9 mph 5 mph 76% 0 in 195 W/m2
08:02 54 °F 46.6 °F 30.2 in Calm   2 mph 76% 0 in 98 W/m2
08:07 54.5 °F 46.8 °F 30.2 in WNW 0.9 mph 2 mph 75% 0 in 53 W/m2
08:12 55 °F 46.9 °F 30.2 in North 2.9 mph 4 mph 74% 0 in 51 W/m2
08:17 55 °F 46.6 °F 30.2 in NW 2 mph 4 mph 73% 0 in 51 W/m2
08:22 55.6 °F 47.5 °F 30.2 in East 2 mph 3 mph 74% 0 in 51 W/m2
08:27 55.9 °F 47.5 °F 30.2 in North 2 mph 4 mph 73% 0 in 49 W/m2
08:32 56.7 °F 47.3 °F 30.2 in ENE 4 mph 6 mph 71% 0 in 51 W/m2
08:37 56.8 °F 47.5 °F 30.2 in NW 0.9 mph 3 mph 71% 0 in 51 W/m2
08:42 56.8 °F 47.1 °F 30.2 in NNW 0.9 mph 3 mph 70% 0 in 51 W/m2
08:47 57.4 °F 47.7 °F 30.2 in North 0.9 mph 3 mph 70% 0 in 53 W/m2
08:52 57.6 °F 47.8 °F 30.2 in ESE 2 mph 3 mph 70% 0 in 53 W/m2
08:57 58.3 °F 47.8 °F 30.2 in SSE 0.9 mph 8 mph 68% 0 in 114 W/m2
09:02 58.3 °F 47.3 °F 30.2 in NNE 0.9 mph 7 mph 67% 0 in 281 W/m2
09:07 58.3 °F 47.3 °F 30.2 in NE 2 mph 8 mph 67% 0 in 445 W/m2
09:12 58.5 °F 47.5 °F 30.3 in ESE 2.9 mph 7 mph 67% 0 in 473 W/m2
09:17 58.5 °F 48 °F 30.3 in SE 0.9 mph 3 mph 68% 0 in 483 W/m2
09:22 58.8 °F 47.8 °F 30.3 in ESE 2 mph 4 mph 67% 0 in 506 W/m2
09:27 59.2 °F 48.2 °F 30.2 in Calm   4 mph 67% 0 in 517 W/m2
09:32 59.4 °F 48 °F 30.3 in ENE 2.9 mph 4 mph 66% 0 in 533 W/m2
09:37 59.4 °F 48 °F 30.2 in ENE 2 mph 5 mph 66% 0 in 554 W/m2
09:42 59.7 °F 48.4 °F 30.2 in SSE 0.9 mph 8 mph 66% 0 in 568 W/m2
09:47 60.1 °F 48.2 °F 30.2 in ESE 0.9 mph 6 mph 65% 0 in 577 W/m2
09:52 60.3 °F 48.9 °F 30.2 in ENE 2 mph 3 mph 66% 0 in 594 W/m2
09:57 60.4 °F 48.6 °F 30.2 in Calm   4 mph 65% 0 in 598 W/m2
10:02 60.6 °F 48.7 °F 30.2 in NW 0.9 mph 5 mph 65% 0 in 60 W/m2
10:07 61.2 °F 48.9 °F 30.2 in East 4 mph 9 mph 64% 0 in 626 W/m2
10:12 61 °F 48.7 °F 30.2 in North 2 mph 2 mph 64% 0 in 640 W/m2
10:17 61.2 °F 48.9 °F 30.2 in NNE 2 mph 4 mph 64% 0 in 654 W/m2
10:23 61.5 °F 49.3 °F 30.2 in ENE 2 mph 4 mph 64% 0 in 673 W/m2
Juneau County Weather
Compliments of Weather Underground - 2 mb